Theta_e
311 311 311 312 312 312 312 312 311 311 310 309 307 307 307 310 312 312 312 313 314 314 314 313 315 315 314 315 314 309 312 314 314 317 317 314 314 313 311 313 312 310 310 309 310
311 311 311 311 312 312 312 312 312 312 311 311 309 308 307 310 311 313 312 314 314 314 315 315 313 313 313 316 315 312 308 311 311 315 315 314 313 313 313 312 311 312 309 308 310
311 311 311 311 310 310 311 311 312 312 312 311 310 309 307 310 312 310 316 313 315 315 314 314 314 313 315 315 316 313 313 312 315 314 314 314 313 312 312 311 309 311 309 305 306
309 309 308 308 307 307 307 307 308 310 311 311 311 309 308 311 309 314 315 315 315 313 314 314 312 314 315 316 314 317 314 314 315 316 314 313 313 313 310 314 311 308 308 304 303
312 312 312 311 310 309 309 307 305 305 308 310 310 309 309 312 310 312 313 315 314 312 314 311 313 313 315 313 314 316 315 315 313 313 312 311 311 312 311 309 307 307 306 305 304
314 314 315 315 315 314 310 309 308 305 304 307 309 308 312 308 311 312 314 313 312 311 312 311 311 312 314 314 314 313 313 312 312 312 312 314 313 311 313 311 308 307 306 304 305
315 317 318 319 319 319 315 308 307 308 305 305 307 308 314 308 311 313 313 312 311 311 310 311 313 313 313 314 312 312 312 310 310 311 312 310 313 311 313 310 309 307 306 305 304
317 318 319 319 320 320 318 309 307 307 307 305 306 312 306 310 311 312 312 311 310 311 311 312 312 312 313 312 309 311 310 311 310 310 311 312 313 312 309 309 309 308 305 305 304
318 319 320 320 320 320 312 308 308 308 307 307 310 312 309 311 312 313 312 311 310 310 310 312 312 311 312 309 308 307 308 307 308 309 311 310 311 311 310 308 308 307 306 305 305
319 320 321 321 321 319 315 309 310 311 312 313 314 310 309 311 312 313 311 311 309 309 310 310 308 309 308 307 309 308 308 307 308 309 310 311 310 311 311 309 310 308 307 305 306
320 321 321 321 321 318 315 309 305 305 309 309 310 308 307 312 313 311 310 310 310 309 308 309 308 309 309 308 309 307 307 307 307 308 311 310 311 311 312 311 311 309 310 310 311
321 321 322 322 321 317 309 308 308 305 307 306 304 307 309 312 312 311 310 309 310 310 308 310 309 308 308 307 309 309 309 309 310 309 307 308 310 309 309 311 312 312 312 310 309
321 321 322 322 321 318 309 307 309 310 307 307 306 306 306 309 308 310 308 307 309 309 308 310 310 310 308 309 309 309 309 310 310 309 307 308 311 309 308 309 310 311 311 310 309
322 322 322 322 319 318 310 311 307 309 307 308 307 308 309 309 310 307 307 308 309 309 308 308 309 309 310 310 309 311 308 309 310 311 313 308 312 309 310 308 308 309 309 309 309
324 323 323 322 321 318 316 313 308 305 320 312 307 309 309 306 307 308 307 309 309 310 309 308 311 310 310 310 309 311 309 309 308 308 310 309 310 312 308 308 308 310 310 309 309
323 323 322 321 321 320 317 310 307 312 321 312 307 310 309 309 309 307 308 307 307 309 308 308 307 309 308 308 307 309 311 309 306 307 312 310 309 314 308 309 309 308 308 308 309
321 321 320 321 318 320 316 306 320 323 314 312 309 309 308 308 309 307 309 309 309 310 310 307 308 308 307 310 309 310 310 311 310 311 315 307 310 312 309 308 307 308 307 307 305
318 319 319 320 319 318 319 321 324 320 314 311 311 310 313 309 310 309 307 307 306 307 306 308 314 308 307 309 309 308 310 312 311 312 313 307 310 312 307 308 307 305 304 302 303
312 315 317 319 319 317 319 322 322 322 318 320 319 320 318 311 311 310 306 307 307 305 311 308 310 307 307 308 309 309 311 310 311 305 307 309 309 309 311 308 306 306 304 303 303
308 313 314 315 318 315 320 322 318 318 316 314 321 317 317 310 310 309 309 307 308 305 306 309 311 307 306 305 306 308 307 311 309 314 314 311 311 312 311 309 307 307 305 303 301
306 308 309 313 316 313 319 318 318 315 315 318 319 320 318 318 313 316 315 311 308 309 305 308 310 311 307 308 311 307 308 307 308 312 316 317 315 311 312 312 307 306 306 305 301
306 308 309 314 315 314 316 314 315 315 314 318 316 318 318 317 317 317 318 317 307 308 311 308 312 316 314 310 306 306 308 309 313 313 311 314 315 311 312 311 310 309 303 302 301
306 305 309 312 314 313 312 313 314 315 315 315 317 316 315 316 318 316 316 314 312 313 314 311 315 319 318 312 310 312 313 310 312 312 314 316 315 312 311 310 310 306 306 304 306
302 304 308 310 311 313 312 312 313 312 314 314 315 314 315 316 315 315 314 312 307 310 311 313 316 318 318 315 311 311 309 311 314 316 315 314 313 311 310 311 311 310 307 306 306
300 302 302 307 308 310 310 310 310 310 310 310 313 313 313 314 313 312 307 306 306 305 304 304 309 311 311 307 308 310 311 312 314 314 314 314 312 311 310 310 310 308 306 303 301
297 299 299 300 300 305 309 308 309 308 310 310 311 303 302 305 304 304 298 299 300 301 298 299 302 305 303 303 305 309 307 309 310 310 312 314 315 311 304 302 299 301 299 298 298
294 296 297 298 298 300 302 304 304 301 303 303 298 298 299 299 296 295 295 295 296 296 295 296 295 293 299 298 299 302 303 305 307 308 309 311 303 300 295 296 294 298 296 296 296
Wind_Speed
9 9 10 10 11 11 11 11 12 13 14 14 14 14 12 10 10 10 7 9 4 11 9 8 5 3 1 1 2 3 3 3 5 3 5 1 2 2 0 2 3 6 4 2 6
8 9 10 11 11 11 12 12 12 12 12 13 14 16 14 11 10 12 14 9 9 13 12 11 4 4 1 1 0 4 3 7 5 4 4 3 4 3 1 4 5 5 3 2 21
9 10 11 11 12 13 13 13 13 13 13 13 14 15 13 10 4 5 4 13 10 13 8 8 5 4 2 2 4 5 6 5 6 7 4 4 3 4 4 8 8 9 8 8 16
9 10 10 11 12 13 14 14 14 14 13 13 13 15 10 4 6 2 0 9 15 14 8 6 4 3 3 5 4 3 9 6 5 4 2 4 3 4 8 18 6 13 3 7 11
8 9 10 12 13 14 15 14 14 14 14 13 12 12 5 2 10 10 6 11 15 14 12 5 4 4 4 3 2 4 5 6 5 8 7 7 10 7 13 15 9 7 7 11 12
10 11 12 14 16 18 18 18 17 15 14 13 12 9 1 5 6 7 7 10 11 14 6 7 5 6 4 4 5 2 5 7 5 6 6 6 12 5 21 1 11 9 13 11 14
9 11 13 14 18 21 20 19 18 17 15 12 11 4 2 15 7 7 9 7 10 9 5 8 5 3 0 4 3 4 9 9 7 7 9 5 15 11 25 5 12 11 11 10 16
9 11 13 16 20 24 21 21 20 18 17 12 8 5 7 8 11 12 13 6 6 9 4 3 9 4 4 2 6 4 2 5 1 6 4 9 17 17 6 7 14 12 10 10 12
10 11 14 18 22 26 23 22 17 11 7 4 5 4 8 5 5 10 13 5 7 6 5 5 4 3 2 5 4 3 5 7 12 11 4 8 10 11 2 4 12 12 11 10 13
10 12 15 18 23 27 23 17 5 5 8 7 3 2 5 4 2 3 10 9 3 5 4 3 4 2 2 4 7 8 5 6 7 3 5 6 14 14 14 5 14 12 13 12 14
11 13 15 18 22 22 22 5 5 3 1 7 6 5 5 1 3 3 5 7 4 4 5 2 4 9 20 14 13 3 5 8 9 8 5 9 15 16 20 17 17 15 17 21 22
12 13 14 16 22 15 10 5 2 2 8 10 10 8 9 1 2 3 10 5 3 5 5 3 7 16 3 3 8 9 13 15 16 19 5 15 22 16 13 14 24 24 22 20 20
15 14 13 13 18 9 8 5 3 2 3 9 5 4 4 8 7 5 10 4 5 6 9 11 9 8 6 5 12 5 8 16 15 9 6 10 17 11 10 19 23 26 24 20 19
17 15 13 11 5 9 1 6 3 1 3 7 3 2 1 3 3 0 5 4 2 9 5 6 4 10 4 8 9 14 11 12 12 3 7 4 11 7 7 11 12 19 18 17 20
21 17 14 7 5 2 3 5 1 1 6 2 1 3 2 4 3 2 1 2 4 4 3 8 2 3 6 13 9 10 6 6 4 5 5 6 4 3 5 7 15 19 17 16 18
16 17 15 7 6 5 5 3 2 3 8 2 2 0 1 1 1 1 2 2 2 2 3 9 2 4 9 6 10 0 2 3 4 3 7 10 8 30 5 7 5 10 11 15 18
4 7 15 11 3 5 3 2 1 6 3 1 2 3 3 5 3 6 5 4 4 3 3 1 5 4 4 3 2 3 5 4 3 1 10 6 8 28 8 6 8 11 11 14 10
5 9 16 16 10 7 3 1 8 0 4 3 1 1 4 5 5 3 3 4 6 3 1 3 12 7 5 8 8 8 10 6 7 9 16 4 7 15 11 8 8 6 10 9 13
9 8 7 17 14 12 2 6 4 3 4 2 7 8 5 3 5 4 8 7 8 13 10 6 12 2 4 3 6 3 6 7 3 4 1 6 13 13 26 11 5 7 7 10 10
3 4 7 15 18 9 6 21 9 10 6 4 11 8 9 5 3 3 6 2 4 9 2 5 10 5 2 2 2 6 2 3 2 3 10 8 8 14 23 17 6 9 9 9 8
2 2 5 12 21 3 10 8 10 9 6 6 10 18 12 8 10 13 8 3 3 2 7 5 6 14 4 7 13 2 4 6 3 6 15 17 10 17 28 29 7 8 11 11 7
1 3 4 21 5 4 12 10 6 5 6 11 4 9 8 13 19 21 22 15 7 6 7 7 3 7 20 16 5 6 11 13 10 11 8 16 19 15 27 21 18 19 9 8 6
2 3 7 11 8 11 7 10 8 17 15 5 9 8 11 17 14 16 20 13 9 7 5 4 4 6 4 9 4 8 15 14 21 20 25 23 21 19 19 26 21 10 11 8 9
2 3 2 4 7 7 14 19 18 6 12 12 15 13 13 14 12 5 10 4 6 5 10 5 9 18 20 19 5 6 8 13 21 14 22 22 28 24 27 28 28 20 8 6 7
1 3 2 3 9 13 11 11 15 11 6 5 5 14 10 10 5 2 3 5 3 6 4 3 4 8 11 11 11 13 18 19 24 23 22 24 28 22 21 23 22 15 16 15 15
1 1 3 4 7 4 11 17 21 18 6 12 10 3 4 1 2 3 6 2 4 5 7 3 7 12 22 22 21 18 20 25 24 28 27 33 33 19 15 15 20 12 12 12 14
1 2 1 4 3 2 5 6 4 4 1 0 7 3 4 1 3 8 10 11 14 15 20 5 4 3 22 26 21 18 23 19 20 22 18 16 9 13 18 18 19 10 12 13 14
Wind_Direction
2 0 358 357 356 356 355 357 357 356 356 356 353 350 341 322 301 272 244 239 231 208 184 173 173 173 160 80 101 123 70 246 252 197 259 267 233 194 141 234 225 206 192 293 164
343 345 343 339 338 339 339 339 339 340 342 344 342 342 339 329 307 256 268 228 208 188 175 165 169 148 65 199 149 111 145 227 217 226 249 267 208 253 285 233 252 274 226 178 165
336 333 328 326 325 324 323 322 322 324 327 330 332 336 336 334 330 249 329 204 195 192 193 183 156 136 203 144 205 175 214 218 258 238 260 264 257 211 221 258 206 215 228 169 180
341 339 334 328 326 323 318 313 309 307 310 315 321 330 330 341 300 240 292 170 187 190 181 163 125 160 209 216 191 212 247 216 258 231 264 251 281 243 207 253 197 225 178 167 189
349 346 346 345 339 333 326 315 304 295 294 296 305 321 321 11 250 270 260 186 187 193 194 155 155 157 207 212 262 226 258 262 258 273 257 304 249 238 257 257 250 241 187 203 207
347 351 354 352 349 344 332 322 310 298 285 282 291 307 185 242 257 267 235 195 196 196 186 156 196 201 226 226 188 273 270 275 281 250 255 240 280 139 265 233 248 240 235 220 213
347 349 350 348 344 339 331 324 311 297 287 280 279 257 220 238 239 246 221 214 213 198 158 196 188 163 109 296 300 296 312 308 207 225 228 158 285 234 259 191 265 244 248 237 228
337 342 343 344 342 339 332 329 312 298 286 278 260 176 242 250 258 242 219 200 199 205 186 175 192 165 181 260 348 349 314 319 301 123 253 142 267 264 276 214 266 268 256 255 248
328 336 341 342 341 340 335 327 321 313 293 222 157 167 264 277 228 235 211 170 162 145 160 140 141 177 88 98 351 346 249 229 304 193 159 185 248 276 310 225 278 283 276 266 270
321 332 338 341 342 341 339 331 18 78 93 113 70 22 270 261 197 185 191 158 121 117 75 86 58 155 53 116 229 229 224 253 245 268 180 230 249 279 286 200 258 265 279 273 268
308 321 332 339 342 344 344 335 8 346 39 195 198 247 273 260 160 111 142 128 95 85 176 208 137 205 221 199 221 207 220 238 253 261 213 237 253 251 270 283 273 264 258 261 264
296 308 322 335 342 351 3 57 84 275 303 253 250 258 261 160 287 165 152 140 152 206 119 61 225 232 66 163 225 239 255 264 272 268 221 269 264 259 234 249 261 267 265 259 264
287 295 310 331 341 357 42 44 349 333 266 290 221 203 233 170 213 230 151 136 171 182 205 210 232 229 205 223 243 215 230 257 263 308 240 285 278 235 252 248 259 264 261 270 261
276 280 291 313 331 349 48 1 344 229 323 272 260 272 205 162 160 242 178 148 219 226 209 234 262 221 154 223 229 265 225 253 267 328 269 16 298 315 227 236 243 257 260 257 262
267 267 273 278 299 284 287 329 336 203 300 260 175 323 343 148 133 3 134 92 212 201 162 250 224 162 200 229 164 244 180 229 200 200 315 185 245 253 194 242 245 256 264 265 263
265 259 248 229 244 253 277 298 165 46 249 313 95 283 115 23 72 90 111 72 136 230 215 245 314 201 218 220 189 125 96 76 60 117 273 204 169 284 174 209 242 256 267 268 276
234 241 221 208 201 175 303 284 241 221 358 256 161 189 213 197 225 181 161 161 195 300 273 40 219 256 192 247 166 142 74 305 322 116 234 139 173 259 303 260 216 244 259 270 307
252 225 218 211 215 183 143 181 237 58 277 299 317 77 234 166 244 186 131 234 235 206 190 215 283 191 174 198 200 186 170 181 221 262 273 97 240 269 233 244 263 270 263 291 296
297 283 247 227 230 191 161 224 233 182 225 271 310 300 273 270 211 164 210 223 219 184 216 197 262 172 195 162 161 164 189 234 297 335 294 248 271 297 279 269 240 275 321 309 315
321 268 235 238 222 174 229 235 231 208 201 205 232 221 230 204 185 189 191 198 249 192 325 305 282 176 184 142 211 193 324 323 357 249 250 232 257 261 278 273 319 318 312 302 309
283 274 234 209 183 223 230 241 245 210 186 218 260 256 248 260 230 246 248 245 232 254 174 206 219 265 122 194 239 155 239 209 208 214 253 256 247 248 266 283 243 269 288 292 292
191 245 191 170 203 214 240 232 208 219 219 233 269 259 262 273 270 259 252 229 153 132 259 215 249 253 261 270 207 191 224 222 233 249 231 255 252 252 267 275 284 280 273 290 289
240 244 194 186 228 230 250 265 255 256 243 227 239 225 255 262 273 256 265 273 294 258 235 169 243 255 226 292 236 212 241 236 248 256 253 257 262 259 270 278 281 284 296 280 283
318 268 230 232 236 249 242 247 249 226 254 247 258 259 264 264 255 268 265 262 349 15 352 351 243 254 259 259 271 261 222 230 230 242 254 255 268 267 268 274 282 285 292 329 309
235 260 325 242 242 250 250 268 267 272 235 237 236 245 265 264 264 210 357 334 277 65 43 51 288 319 314 321 314 317 309 305 290 278 267 275 277 274 281 285 294 354 12 28 16
232 296 357 307 308 293 233 243 257 267 252 260 254 67 55 246 33 326 4 53 289 345 349 328 269 296 288 283 281 280 286 274 273 275 275 274 273 299 359 349 355 10 31 13 360
248 356 347 258 286 259 255 258 290 34 171 325 75 25 291 44 323 272 258 250 248 267 282 243 246 267 277 282 289 273 260 269 273 267 296 292 357 7 355 359 340 9 7 8 358